Location: Kershaw
(34.5481°N, 80.5823°W)
Time: 06:50:18
(UTC+00:00)

Tiros 1 despin weight - Pass Details

Date: 12 October 2022
Orbit: 590 x 637 km, 48.2° (Epoch: 09 December)

Event Time Altitude Azimuth Distance (km) Brightness Sun altitude
Rises 01:25:44 0° 293° (WNW) 2,883 ? -32.1°
Reaches altitude 10° 01:28:28 10° 278° (W) 1,984 ? -32.7°
Enters shadow 01:30:58 20° 246° (WSW) 1,445 ? -33.2°
